Regional Weather Roundup
Issued by NWS

Home | Current Version | Previous Version | Text Only | Print | Product List | Glossary On
Versions: 1 2 3 4 5 6 7 8 9 10 11 12 13 14 15 16 17 18 19 20 21 22 23 24 25 26 27 28 29 30 31 32 33 34 35 36 37 38 39 40 41 42 43 44 45 46 47 48 49 50
000
ASUS43 KOAX 181902
RWRNE

WEATHER ROUNDUP FOR NEBRASKA
NATIONAL WEATHER SERVICE OMAHA NE
200 PM CDT WED OCT 18 2017

NOTES: SATELLITE DATA IS BEING USED TO AUGMENT CLOUD COVER ABOVE
       12000 FEET.
       "FAIR" INDICATES FEW OR NO CLOUDS BELOW 12,000 FEET WITH NO
       SIGNIFICANT WEATHER AND/OR OBSTRUCTIONS TO VISIBILITY.


NEZ001>004-019>022-054>056-182000-
NEBRASKA PANHANDLE

CITY           SKY/WX    TMP DP  RH WIND       PRES   REMARKS
SCOTTSBLUFF    SUNNY     72  24  16 VRB5      30.11F
ALLIANCE       SUNNY     68  27  21 NE10      30.10F
CHADRON        SUNNY     66  26  22 NE8       30.10F
GORDON         FAIR      64  25  23 NE10      30.10F
KIMBALL        SUNNY     69  20  15 NE8G16    30.15F
SIDNEY         SUNNY     72  22  15 NE14      30.12S
$$

NEZ057>060-069>072-079>082-182000-
SOUTHWEST NEBRASKA

CITY           SKY/WX    TMP DP  RH WIND       PRES   REMARKS
NORTH PLATTE   SUNNY     75  31  19 NE20      30.04S
IMPERIAL       SUNNY     78  19  11 N15       30.06S
LEXINGTON      SUNNY     74  34  23 NE18G24   30.00S
MCCOOK         SUNNY     79  30  16 NE21G26   30.01R
OGALLALA       SUNNY     75  26  15 NE13G18   30.07S
$$

NEZ005>010-023>029-035>040-094-182000-
NORTH CENTRAL NEBRASKA

CITY           SKY/WX    TMP DP  RH WIND       PRES   REMARKS
VALENTINE      SUNNY     69  29  22 N14       30.07S
AINSWORTH      SUNNY     66  35  31 N15G21    30.06S
BROKEN BOW     SUNNY     72  35  25 N17G26    30.02R
O`NEILL        SUNNY     70  37  30 N17       30.01R
ORD            LGT RAIN  72  31  22 N16G24    29.99R
THEDFORD       SUNNY     69  34  26 N12G20    30.07S
$$

NEZ041-046>049-061>064-073>077-083>087-182000-
SOUTH CENTRAL NEBRASKA

CITY           SKY/WX    TMP DP  RH WIND       PRES   REMARKS
GRAND ISLAND   SUNNY     75  40  28 N10       29.96R
AURORA         SUNNY     76  38  25 N10G17    29.95R
HASTINGS       SUNNY     75  37  25 NW14      29.96R
HEBRON         SUNNY     74  47  37 S12       29.93S
HOLDREGE       SUNNY     76  37  24 N9G18     29.97S
KEARNEY        SUNNY     75  36  24 N18       29.97S
YORK           SUNNY     73  45  35 NW3       29.94S
$$

NEZ011>018-030>034-042>045-182000-
NORTHEAST NEBRASKA

CITY           SKY/WX    TMP DP  RH WIND       PRES   REMARKS
NORFOLK        SUNNY     72  38  29 N14       29.92S
ALBION         SUNNY     74  38  27 N14G20    29.95S
BLAIR          SUNNY     73  49  41 SW7       29.93R
COLUMBUS       SUNNY     74  40  29 NW5       29.93S
FREMONT        SUNNY     73  48  40 W5        29.93R
TEKAMAH        SUNNY     75  45  34 VRB6      29.91F
WAYNE          SUNNY     70  37  29 N15       29.94R
$$

NEZ050>053-065>068-078-088>093-182000-
SOUTHEAST NEBRASKA

CITY           SKY/WX    TMP DP  RH WIND       PRES   REMARKS
LINCOLN        SUNNY     75  48  38 SW7       29.93S
OMAHA EPPLEY   MOSUNNY   73  48  41 S10       29.92S
BEATRICE       SUNNY     72  51  47 SW12      29.94R
FALLS CITY     SUNNY     70  48  45 S12G22    29.95F
NEBRASKA CITY  SUNNY     71  49  46 S14       29.94S
PLATTSMOUTH    SUNNY     73  49  43 S9G17     29.93S
$$

NEZ044-045-051>053-067-182000-
OMAHA AREA

CITY           SKY/WX    TMP DP  RH WIND       PRES   REMARKS
OMAHA EPPLEY   MOSUNNY   73  48  41 S10       29.92S
BLAIR          SUNNY     73  49  41 SW7       29.93R
FREMONT        SUNNY     73  48  40 W5        29.93R
MILLARD        SUNNY     74  50  42 S5        29.93R
OFFUTT AFB     SUNNY     73  49  41 S8        29.92S
PLATTSMOUTH    SUNNY     73  49  43 S9G17     29.93S
WAHOO          FAIR      76  47  35 SW7       29.92F
$$




USA.gov is the U.S. government's official web portal to all federal, state and local government web resources and services.